This demonstration page uses our WeatherBlox Daily Observations layout. Learn more.

Left ArrowRight Arrow

41.12389, -100.76542

Hourly Observations for July 8, 2015

Temp ( °F °C ) Dew Point ( °F °C ) Humidity (%) Winds ( mph kmh ) Pressure ( in mb ) Visibility ( mi km ) Precip ( " mm )
12:53 am 00:53 Cloudy 63 17.2 54 12.2 73 73 ESE 5 7 30.03 1017 10 16 0.00 0.00
1:53 am 01:53 Cloudy 62 16.7 51 10.6 67 67 SSE 8 13 30.02 1017 10 16 0.00 0.00
2:53 am 02:53 Cloudy 61 16.1 52 11.1 72 72 E 6 9 30.00 1016 10 16 0.00 0.00
3:53 am 03:53 Cloudy 59 15 53 11.7 81 81 E 8 13 29.99 1016 10 16 0.00 0.00
4:53 am 04:53 Cloudy 60 15.6 53 11.7 78 78 SE 5 7 29.98 1015 10 16 0.00 0.00
5:53 am 05:53 Cloudy 60 15.6 50 10 70 70 SSE 8 13 29.99 1016 10 16 0.00 0.00
6:53 am 06:53 Cloudy 59 15 48 8.9 67 67 S 8 13 30.00 1016 10 16 0.00 0.00
7:53 am 07:53 Cloudy 60 15.6 49 9.4 67 67 S 8 13 30.00 1016 10 16 0.00 0.00
8:53 am 08:53 Cloudy 61 16.1 50 10 67 67 SSE 6 9 30.01 1016 10 16 0.00 0.00
9:53 am 09:53 Cloudy 62 16.7 51 10.6 67 67 S 6 9 30.01 1016 10 16 0.00 0.00
10:53 am 10:53 Cloudy with Light Rain 61 16.1 54 12.2 78 78 WSW 5 7 30.01 1016 10 16 0.00 0.03
11:53 am 11:53 Cloudy with Light Rain 62 16.7 55 12.8 78 78 WNW 7 11 30.02 1017 10 16 0.02 0.51
12:53 pm 12:53 Cloudy with Light Rain 62 16.7 56 13.3 80 80 WNW 7 11 30.01 1016 10 16 0.02 0.51
1:53 pm 13:53 Cloudy with Light Rain 64 17.8 57 13.9 78 78 NNW 6 9 30.01 1016 10 16 0.02 0.51
2:53 pm 14:53 Cloudy with Light Rain 61 16.1 57 13.9 87 87 NNW 9 15 30.01 1016 10 16 0.01 0.25
3:53 pm 15:53 Cloudy with Light Rain 61 16.1 56 13.3 84 84 NNW 7 11 30.01 1016 10 16 0.04 1.02
4:53 pm 16:53 Cloudy with Light Rain 61 16.1 56 13.3 84 84 NNW 7 11 30.01 1016 10 16 0.03 0.76
5:53 pm 17:53 Cloudy with Light Rain 63 17.2 58 14.4 84 84 NW 7 11 30.00 1016 10 16 0.01 0.25
6:53 pm 18:53 Mostly Cloudy with Light Rain 63 17.2 57 13.9 81 81 N 7 11 29.99 1016 10 16 0.00 0.03
7:53 pm 19:53 Cloudy with Light Rain 62 16.7 57 13.9 84 84 Calm 30.00 1016 10 16 0.00 0.03
8:53 pm 20:53 Cloudy 61 16.1 58 14.4 90 90 Calm 30.01 1016 10 16 0.00 0.03
9:53 pm 21:53 Cloudy 61 16.1 58 14.4 90 90 S 5 7 30.01 1016 10 16 0.00 0.00
10:53 pm 22:53 Cloudy with Light Rain 61 16.1 58 14.4 90 90 Calm 30.03 1017 10 16 0.00 0.03
11:53 pm 23:53 Cloudy 61 16.1 59 15 93 93 Calm 30.02 1017 10 16 0.00 0.03

Powered by AerisWeather